| time (UTC) | temp C | wind direction | speed KPH | gust KPH | rain 1hr cm | rain 24hr cm | rain mn cm | humidity % | barometer mb |
| 20260507183104 | 15 | 264 | 6.4 | 8.0 | 0.00 | 0.00 | 0.00 | 32 | 1020.0 |
| 20260507182600 | 14 | 222 | 3.2 | 3.2 | 0.00 | 0.00 | 0.00 | 30 | 1020.2 |
| 20260507182056 | 13 | 134 | 0.0 | 0.0 | 0.00 | 0.00 | 0.00 | 32 | 1020.1 |
| 20260507181553 | 14 | 338 | 3.2 | 3.2 | 0.00 | 0.00 | 0.00 | 30 | 1019.9 |
| 20260507181049 | 14 | 2 | 3.2 | 3.2 | 0.00 | 0.00 | 0.00 | 31 | 1020.0 |
| 20260507180546 | 14 | 288 | 1.6 | 1.6 | 0.00 | 0.00 | 0.00 | 29 | 1020.1 |
| 20260507180043 | 15 | 179 | 3.2 | 3.2 | 0.00 | 0.00 | 0.00 | 33 | 1020.1 |
| 20260507175539 | 15 | 68 | 4.8 | 4.8 | 0.00 | 0.00 | 0.00 | 29 | 1020.2 |
| 20260507175037 | 15 | 282 | 1.6 | 3.2 | 0.00 | 0.00 | 0.00 | 33 | 1020.0 |
| 20260507174533 | 15 | 319 | 1.6 | 1.6 | 0.00 | 0.00 | 0.00 | 28 | 1020.1 |
| 20260507174031 | 13 | 358 | 1.6 | 1.6 | 0.00 | 0.00 | 0.00 | 29 | 1020.5 |
| 20260507173528 | 14 | 160 | 1.6 | 3.2 | 0.00 | 0.00 | 0.00 | 32 | 1020.6 |
| 20260507173025 | 13 | 276 | 1.6 | 1.6 | 0.00 | 0.00 | 0.00 | 33 | 1020.7 |
| 20260507172521 | 13 | 308 | 1.6 | 1.6 | 0.00 | 0.00 | 0.00 | 31 | 1020.4 |
| 20260507172018 | 13 | 33 | 0.0 | 0.0 | 0.00 | 0.00 | 0.00 | 27 | 1020.6 |
| 20260507171513 | 14 | 329 | 1.6 | 3.2 | 0.00 | 0.00 | 0.00 | 31 | 1021.0 |
| 20260507171011 | 13 | 238 | 3.2 | 3.2 | 0.00 | 0.00 | 0.00 | 29 | 1020.9 |
| 20260507170508 | 13 | 233 | 3.2 | 4.8 | 0.00 | 0.00 | 0.00 | 31 | 1020.9 |
| 20260507170005 | 13 | 331 | 1.6 | 3.2 | 0.00 | 0.00 | 0.00 | 29 | 1020.9 |
| 20260507165500 | 13 | 243 | 3.2 | 8.0 | 0.00 | 0.00 | 0.00 | 30 | 1021.1 |
| 20260507164956 | 13 | 310 | 0.0 | 1.6 | 0.00 | 0.00 | 0.00 | 35 | 1021.0 |
| 20260507164453 | 13 | 346 | 1.6 | 1.6 | 0.00 | 0.00 | 0.00 | 33 | 1020.7 |
| 20260507163950 | 13 | 206 | 0.0 | 0.0 | 0.00 | 0.00 | 0.00 | 34 | 1020.9 |
| 20260507163447 | 13 | 14 | 0.0 | 1.6 | 0.00 | 0.00 | 0.00 | 36 | 1021.1 |
| 20260507162944 | 12 | 280 | 1.6 | 1.6 | 0.00 | 0.00 | 0.00 | 37 | 1021.0 |
| 20260507162440 | 12 | 169 | 1.6 | 1.6 | 0.00 | 0.00 | 0.00 | 41 | 1020.6 |
| 20260507161937 | 12 | 343 | 1.6 | 3.2 | 0.00 | 0.00 | 0.00 | 36 | 1020.9 |
| 20260507161433 | 11 | 302 | 3.2 | 8.0 | 0.00 | 0.00 | 0.00 | 38 | 1020.9 |
| 20260507160930 | 11 | 329 | 0.0 | 0.0 | 0.00 | 0.00 | 0.00 | 39 | 1021.1 |
| 20260507160426 | 11 | 345 | 1.6 | 1.6 | 0.00 | 0.00 | 0.00 | 42 | 1020.9 |
| 20260507155922 | 11 | 338 | 3.2 | 3.2 | 0.00 | 0.00 | 0.00 | 40 | 1021.0 |
| 20260507155418 | 10 | 301 | 3.2 | 4.8 | 0.00 | 0.00 | 0.00 | 42 | 1020.9 |
| 20260507154915 | 10 | 245 | 1.6 | 4.8 | 0.00 | 0.00 | 0.00 | 42 | 1021.0 |
| 20260507154412 | 10 | 253 | 3.2 | 3.2 | 0.00 | 0.00 | 0.00 | 43 | 1020.9 |
| 20260507153909 | 10 | 291 | 4.8 | 4.8 | 0.00 | 0.00 | 0.00 | 45 | 1021.1 |
| 20260507153406 | 9 | 341 | 1.6 | 1.6 | 0.00 | 0.00 | 0.00 | 47 | 1021.1 |
| 20260507152902 | 9 | 22 | 0.0 | 0.0 | 0.00 | 0.00 | 0.00 | 49 | 1021.0 |
| 20260507152358 | 8 | 243 | 3.2 | 3.2 | 0.00 | 0.00 | 0.00 | 51 | 1021.1 |
| 20260507151854 | 8 | 307 | 0.0 | 1.6 | 0.00 | 0.00 | 0.00 | 51 | 1021.2 |
| 20260507151351 | 8 | 97 | 1.6 | 1.6 | 0.00 | 0.00 | 0.00 | 49 | 1021.2 |
| 20260507150848 | 7 | 235 | 4.8 | 9.7 | 0.00 | 0.00 | 0.00 | 50 | 1021.2 |
| 20260507150344 | 7 | 233 | 3.2 | 3.2 | 0.00 | 0.00 | 0.00 | 50 | 1021.1 |
| 20260507145841 | 7 | 316 | 1.6 | 1.6 | 0.00 | 0.00 | 0.00 | 53 | 1020.9 |
| 20260507145338 | 7 | 325 | 1.6 | 1.6 | 0.00 | 0.00 | 0.00 | 55 | 1021.0 |
| 20260507144834 | 7 | 0 | 1.6 | 3.2 | 0.00 | 0.00 | 0.00 | 54 | 1020.7 |
| 20260507144332 | 6 | 300 | 1.6 | 1.6 | 0.00 | 0.00 | 0.00 | 55 | 1021.0 |
| 20260507143828 | 6 | 343 | 0.0 | 1.6 | 0.00 | 0.00 | 0.00 | 55 | 1021.0 |
| 20260507143325 | 6 | 11 | 0.0 | 0.0 | 0.00 | 0.00 | 0.00 | 57 | 1021.0 |
| 20260507142821 | 6 | 265 | 1.6 | 3.2 | 0.00 | 0.00 | 0.00 | 54 | 1020.9 |
| 20260507142318 | 5 | 260 | 3.2 | 4.8 | 0.00 | 0.00 | 0.00 | 54 | 1020.9 |
| 20260507141815 | 5 | 267 | 1.6 | 1.6 | 0.00 | 0.00 | 0.00 | 56 | 1021.0 |
| 20260507141311 | 5 | 288 | 3.2 | 3.2 | 0.00 | 0.00 | 0.00 | 55 | 1021.1 |
| 20260507140808 | 5 | 298 | 1.6 | 3.2 | 0.00 | 0.00 | 0.00 | 56 | 1020.9 |
| 20260507140305 | 5 | 332 | 1.6 | 1.6 | 0.00 | 0.00 | 0.00 | 55 | 1021.0 |
| 20260507135802 | 5 | 334 | 4.8 | 4.8 | 0.00 | 0.00 | 0.00 | 54 | 1021.0 |
| 20260507135259 | 5 | 310 | 1.6 | 3.2 | 0.00 | 0.00 | 0.00 | 54 | 1020.7 |
| 20260507134755 | 5 | 288 | 0.0 | 1.6 | 0.00 | 0.00 | 0.00 | 55 | 1020.9 |
| 20260507134252 | 4 | 338 | 1.6 | 3.2 | 0.00 | 0.00 | 0.00 | 56 | 1021.1 |
| 20260507133748 | 4 | 327 | 1.6 | 3.2 | 0.00 | 0.00 | 0.00 | 55 | 1020.7 |
| 20260507133244 | 3 | 339 | 1.6 | 3.2 | 0.00 | 0.00 | 0.00 | 55 | 1020.7 |
| 20260507132742 | 3 | 304 | 1.6 | 1.6 | 0.00 | 0.00 | 0.00 | 57 | 1020.2 |
| 20260507132239 | 3 | 351 | 3.2 | 4.8 | 0.00 | 0.00 | 0.00 | 59 | 1020.6 |
| 20260507131736 | 2 | 307 | 0.0 | 0.0 | 0.00 | 0.00 | 0.00 | 58 | 1020.6 |
| 20260507131233 | 2 | 314 | 0.0 | 0.0 | 0.00 | 0.00 | 0.00 | 60 | 1020.4 |
| 20260507130730 | 2 | 303 | 3.2 | 3.2 | 0.00 | 0.00 | 0.00 | 59 | 1020.5 |
| 20260507130227 | 2 | 308 | 0.0 | 1.6 | 0.00 | 0.00 | 0.00 | 60 | 1020.5 |
| 20260507125726 | 2 | 295 | 1.6 | 3.2 | 0.00 | 0.00 | 0.00 | 60 | 1020.4 |
| 20260507125223 | 1 | 333 | 1.6 | 3.2 | 0.00 | 0.00 | 0.00 | 60 | 1020.4 |
| 20260507124720 | 1 | 297 | 1.6 | 1.6 | 0.00 | 0.00 | 0.00 | 61 | 1020.4 |
| 20260507124217 | 1 | 334 | 1.6 | 3.2 | 0.00 | 0.00 | 0.00 | 61 | 1020.2 |
| 20260507123715 | 1 | 294 | 0.0 | 1.6 | 0.00 | 0.00 | 0.00 | 61 | 1020.2 |
| 20260507123212 | 1 | 303 | 1.6 | 1.6 | 0.00 | 0.00 | 0.00 | 60 | 1020.5 |
| 20260507122708 | 1 | 311 | 1.6 | 3.2 | 0.00 | 0.00 | 0.00 | 61 | 1020.0 |
| 20260507122203 | 0 | 316 | 1.6 | 1.6 | 0.00 | 0.00 | 0.00 | 62 | 1020.4 |
| 20260507121659 | 0 | 332 | 1.6 | 1.6 | 0.00 | 0.00 | 0.00 | 61 | 1020.2 |
| 20260507121155 | 0 | 320 | 1.6 | 1.6 | 0.00 | 0.00 | 0.00 | 62 | 1020.2 |
| 20260507120652 | 0 | 326 | 0.0 | 0.0 | 0.00 | 0.00 | 0.00 | 65 | 1020.2 |
| 20260507120149 | 0 | 305 | 0.0 | 0.0 | 0.00 | 0.00 | 0.00 | 63 | 1020.2 |
| 20260507115645 | 0 | 334 | 0.0 | 1.6 | 0.00 | 0.00 | 0.00 | 62 | 1020.0 |
| 20260507115140 | 0 | 307 | 0.0 | 0.0 | 0.00 | 0.00 | 0.00 | 62 | 1020.1 |
| 20260507114637 | 0 | 305 | 1.6 | 1.6 | 0.00 | 0.00 | 0.00 | 64 | 1020.1 |
| 20260507114134 | 0 | 293 | 0.0 | 1.6 | 0.00 | 0.00 | 0.00 | 64 | 1020.2 |
| 20260507113631 | 0 | 300 | 0.0 | 0.0 | 0.00 | 0.00 | 0.00 | 63 | 1020.1 |
| 20260507113128 | 0 | 304 | 0.0 | 0.0 | 0.00 | 0.00 | 0.00 | 62 | 1020.2 |
| 20260507112626 | 0 | 322 | 0.0 | 1.6 | 0.00 | 0.00 | 0.00 | 61 | 1020.2 |
| 20260507112122 | 0 | 295 | 1.6 | 1.6 | 0.00 | 0.00 | 0.00 | 60 | 1020.0 |
| 20260507111620 | 0 | 324 | 0.0 | 0.0 | 0.00 | 0.00 | 0.00 | 61 | 1020.0 |
| 20260507111116 | 0 | 305 | 0.0 | 1.6 | 0.00 | 0.00 | 0.00 | 62 | 1020.2 |
| 20260507110613 | 0 | 327 | 0.0 | 0.0 | 0.00 | 0.00 | 0.00 | 63 | 1020.1 |
| 20260507110109 | 0 | 301 | 1.6 | 1.6 | 0.00 | 0.00 | 0.00 | 63 | 1020.2 |
| 20260507105606 | 0 | 324 | 0.0 | 0.0 | 0.00 | 0.00 | 0.00 | 63 | 1020.2 |
| 20260507105102 | 0 | 316 | 1.6 | 1.6 | 0.00 | 0.00 | 0.00 | 62 | 1020.1 |
| 20260507104600 | 0 | 320 | 0.0 | 1.6 | 0.00 | 0.00 | 0.00 | 63 | 1020.2 |
| 20260507104056 | 0 | 336 | 1.6 | 1.6 | 0.00 | 0.00 | 0.00 | 63 | 1020.2 |
| 20260507103552 | 0 | 314 | 3.2 | 3.2 | 0.00 | 0.00 | 0.00 | 62 | 1020.2 |
| 20260507103049 | 0 | 311 | 1.6 | 3.2 | 0.00 | 0.00 | 0.00 | 64 | 1020.1 |
| 20260507102545 | 0 | 300 | 1.6 | 1.6 | 0.00 | 0.00 | 0.00 | 66 | 1020.4 |
| 20260507102042 | 0 | 326 | 0.0 | 1.6 | 0.00 | 0.00 | 0.00 | 66 | 1020.0 |
| 20260507101537 | 0 | 342 | 1.6 | 1.6 | 0.00 | 0.00 | 0.00 | 68 | 1020.5 |
| 20260507101033 | 0 | 333 | 0.0 | 0.0 | 0.00 | 0.00 | 0.00 | 68 | 1020.6 |
| 20260507100531 | 0 | 336 | 0.0 | 0.0 | 0.00 | 0.00 | 0.00 | 69 | 1020.5 |
| 20260507100029 | 0 | 291 | 0.0 | 0.0 | 0.00 | 0.00 | 0.00 | 71 | 1020.6 |
| 20260507095527 | -1 | 294 | 0.0 | 1.6 | 0.00 | 0.00 | 0.00 | 72 | 1020.5 |
| 20260507095023 | -1 | 280 | 0.0 | 1.6 | 0.00 | 0.00 | 0.00 | 72 | 1020.5 |
| 20260507094519 | -1 | 333 | 0.0 | 1.6 | 0.00 | 0.00 | 0.00 | 74 | 1020.4 |
| 20260507094017 | -1 | 310 | 1.6 | 1.6 | 0.00 | 0.00 | 0.00 | 75 | 1020.4 |
| 20260507093514 | -1 | 298 | 0.0 | 1.6 | 0.00 | 0.00 | 0.00 | 76 | 1020.4 |
| 20260507093013 | -1 | 325 | 0.0 | 1.6 | 0.00 | 0.00 | 0.00 | 74 | 1020.4 |
| 20260507092509 | -1 | 300 | 1.6 | 1.6 | 0.00 | 0.00 | 0.00 | 76 | 1020.4 |
| 20260507092006 | -1 | 314 | 0.0 | 0.0 | 0.00 | 0.00 | 0.00 | 78 | 1020.4 |
| 20260507091502 | -1 | 328 | 1.6 | 1.6 | 0.00 | 0.00 | 0.00 | 76 | 1020.6 |
| 20260507090958 | -1 | 295 | 0.0 | 1.6 | 0.00 | 0.00 | 0.00 | 76 | 1020.6 |
| 20260507090454 | -1 | 283 | 0.0 | 0.0 | 0.00 | 0.00 | 0.00 | 76 | 1020.7 |
| 20260507085951 | -1 | 282 | 0.0 | 1.6 | 0.00 | 0.00 | 0.00 | 76 | 1020.6 |
| 20260507085448 | -1 | 272 | 1.6 | 1.6 | 0.00 | 0.00 | 0.00 | 77 | 1020.5 |
| 20260507084944 | -1 | 313 | 0.0 | 1.6 | 0.00 | 0.00 | 0.00 | 78 | 1020.6 |
| 20260507084442 | -1 | 313 | 1.6 | 1.6 | 0.00 | 0.00 | 0.00 | 79 | 1020.6 |
| 20260507083939 | -1 | 299 | 0.0 | 1.6 | 0.00 | 0.00 | 0.00 | 81 | 1020.7 |
| 20260507083435 | -2 | 313 | 1.6 | 3.2 | 0.00 | 0.00 | 0.00 | 82 | 1020.6 |
| 20260507082931 | -2 | 295 | 0.0 | 1.6 | 0.00 | 0.00 | 0.00 | 82 | 1020.4 |
| 20260507082427 | -1 | 255 | 1.6 | 3.2 | 0.00 | 0.00 | 0.00 | 83 | 1020.7 |
| 20260507081924 | -2 | 318 | 0.0 | 1.6 | 0.00 | 0.00 | 0.00 | 84 | 1020.6 |
| 20260507081420 | -1 | 259 | 1.6 | 1.6 | 0.00 | 0.00 | 0.00 | 84 | 1020.9 |
| 20260507080917 | -2 | 324 | 0.0 | 0.0 | 0.00 | 0.00 | 0.00 | 83 | 1020.6 |
| 20260507080414 | -2 | 295 | 0.0 | 1.6 | 0.00 | 0.00 | 0.00 | 85 | 1020.7 |
| 20260507075909 | -2 | 342 | 0.0 | 0.0 | 0.00 | 0.00 | 0.00 | 89 | 1020.9 |
| 20260507075405 | -2 | 302 | 1.6 | 1.6 | 0.00 | 0.00 | 0.00 | 92 | 1020.9 |
| 20260507074902 | -2 | 276 | 0.0 | 1.6 | 0.00 | 0.00 | 0.00 | 94 | 1021.0 |
| 20260507074359 | -2 | 351 | 0.0 | 1.6 | 0.00 | 0.00 | 0.00 | 95 | 1020.9 |
| 20260507073856 | -2 | 309 | 0.0 | 0.0 | 0.00 | 0.00 | 0.00 | 97 | 1021.0 |
| 20260507073353 | -3 | 311 | 1.6 | 1.6 | 0.00 | 0.00 | 0.00 | 97 | 1021.1 |
| 20260507072850 | -3 | 324 | 0.0 | 0.0 | 0.00 | 0.00 | 0.00 | 98 | 1021.0 |
| 20260507072347 | -3 | 301 | 0.0 | 1.6 | 0.00 | 0.00 | 0.00 | 98 | 1021.2 |
| 20260507071845 | -3 | 244 | 0.0 | 0.0 | 0.00 | 0.00 | 0.00 | 98 | 1021.0 |
| 20260507071342 | -3 | 299 | 0.0 | 0.0 | 0.00 | 0.00 | 0.00 | 99 | 1020.9 |
| 20260507070838 | -3 | 301 | 0.0 | 0.0 | 0.00 | 0.00 | 0.00 | 99 | 1021.0 |
| 20260507070335 | -3 | 315 | 0.0 | 0.0 | 0.00 | 0.00 | 0.00 | 99 | 1021.2 |
| 20260507065832 | -3 | 292 | 0.0 | 0.0 | 0.00 | 0.00 | 0.00 | 99 | 1021.0 |
| 20260507065329 | -3 | 318 | 0.0 | 0.0 | 0.00 | 0.00 | 0.00 | 99 | 1021.1 |
| 20260507064826 | -3 | 320 | 0.0 | 0.0 | 0.00 | 0.00 | 0.00 | 99 | 1021.1 |
| 20260507064324 | -3 | 307 | 0.0 | 0.0 | 0.00 | 0.00 | 0.00 | 99 | 1021.0 |
| 20260507063822 | -3 | 302 | 0.0 | 0.0 | 0.00 | 0.00 | 0.00 | 99 | 1021.2 |
| 20260507063318 | -3 | 312 | 0.0 | 0.0 | 0.00 | 0.00 | 0.00 | 99 | 1021.0 |
| 20260507062815 | -3 | 315 | 0.0 | 0.0 | 0.00 | 0.00 | 0.00 | 99 | 1021.1 |
| 20260507062312 | -3 | 302 | 0.0 | 0.0 | 0.00 | 0.00 | 0.00 | 99 | 1021.1 |
| 20260507061810 | -3 | 315 | 0.0 | 0.0 | 0.00 | 0.00 | 0.00 | 99 | 1021.0 |
| 20260507061308 | -3 | 317 | 0.0 | 0.0 | 0.00 | 0.00 | 0.00 | 99 | 1021.0 |
| 20260507060806 | -3 | 326 | 0.0 | 0.0 | 0.00 | 0.00 | 0.00 | 99 | 1021.1 |
| 20260507060303 | -2 | 302 | 0.0 | 0.0 | 0.00 | 0.00 | 0.00 | 99 | 1021.0 |
| 20260507055759 | -2 | 286 | 0.0 | 0.0 | 0.00 | 0.08 | 0.08 | 99 | 1020.9 |
| 20260507055254 | -2 | 300 | 0.0 | 0.0 | 0.00 | 0.08 | 0.08 | 99 | 1020.7 |
| 20260507054751 | -2 | 305 | 0.0 | 0.0 | 0.00 | 0.08 | 0.08 | 99 | 1020.7 |
| 20260507054247 | -2 | 301 | 0.0 | 0.0 | 0.00 | 0.08 | 0.08 | 99 | 1020.9 |
| 20260507053745 | -2 | 301 | 0.0 | 0.0 | 0.00 | 0.08 | 0.08 | 99 | 1020.7 |
| 20260507053242 | -2 | 285 | 0.0 | 0.0 | 0.00 | 0.08 | 0.08 | 99 | 1021.0 |
| 20260507052741 | -2 | 295 | 0.0 | 0.0 | 0.00 | 0.08 | 0.08 | 99 | 1020.9 |
| 20260507052237 | -2 | 155 | 1.6 | 1.6 | 0.00 | 0.08 | 0.08 | 99 | 1021.0 |
| 20260507051735 | -2 | 216 | 0.0 | 0.0 | 0.00 | 0.08 | 0.08 | 99 | 1021.0 |
| 20260507051232 | -2 | 291 | 0.0 | 0.0 | 0.00 | 0.08 | 0.08 | 98 | 1021.0 |
| 20260507050728 | -1 | 236 | 0.0 | 0.0 | 0.00 | 0.08 | 0.08 | 98 | 1021.0 |
| 20260507050226 | -1 | 276 | 0.0 | 0.0 | 0.00 | 0.08 | 0.08 | 98 | 1020.9 |
| 20260507045722 | -1 | 167 | 0.0 | 1.6 | 0.00 | 0.08 | 0.08 | 98 | 1021.0 |
| 20260507045218 | -1 | 257 | 0.0 | 1.6 | 0.00 | 0.08 | 0.08 | 98 | 1021.0 |
| 20260507044716 | -1 | 201 | 0.0 | 0.0 | 0.00 | 0.08 | 0.08 | 98 | 1020.9 |
| 20260507044212 | -1 | 297 | 0.0 | 0.0 | 0.00 | 0.08 | 0.08 | 98 | 1021.1 |
| 20260507043709 | -1 | 264 | 0.0 | 0.0 | 0.00 | 0.08 | 0.08 | 98 | 1020.7 |
| 20260507043205 | -1 | 151 | 0.0 | 0.0 | 0.00 | 0.08 | 0.08 | 98 | 1020.7 |
| 20260507042702 | -1 | 193 | 1.6 | 1.6 | 0.00 | 0.08 | 0.08 | 98 | 1020.9 |
| 20260507042156 | -1 | 176 | 3.2 | 4.8 | 0.00 | 0.08 | 0.08 | 98 | 1021.1 |
| 20260507041654 | -1 | 224 | 0.0 | 0.0 | 0.00 | 0.08 | 0.08 | 98 | 1021.1 |
| 20260507041150 | -1 | 164 | 1.6 | 3.2 | 0.00 | 0.08 | 0.08 | 98 | 1020.9 |
| 20260507040648 | -1 | 292 | 0.0 | 0.0 | 0.00 | 0.08 | 0.08 | 98 | 1021.0 |
| 20260507040144 | -1 | 193 | 1.6 | 3.2 | 0.00 | 0.08 | 0.08 | 98 | 1021.0 |
| 20260507035640 | -1 | 290 | 0.0 | 0.0 | 0.00 | 0.08 | 0.08 | 98 | 1021.1 |
| 20260507035136 | -1 | 184 | 1.6 | 3.2 | 0.00 | 0.08 | 0.08 | 98 | 1021.0 |
| 20260507034633 | -1 | 163 | 1.6 | 3.2 | 0.00 | 0.08 | 0.08 | 98 | 1021.0 |
| 20260507034131 | -1 | 263 | 0.0 | 0.0 | 0.00 | 0.08 | 0.08 | 97 | 1020.9 |
| 20260507033629 | -1 | 186 | 0.0 | 0.0 | 0.00 | 0.08 | 0.08 | 97 | 1021.0 |
| 20260507033126 | -1 | 198 | 0.0 | 1.6 | 0.00 | 0.08 | 0.08 | 97 | 1020.9 |
| 20260507032623 | -1 | 282 | 0.0 | 0.0 | 0.00 | 0.08 | 0.08 | 97 | 1020.9 |
| 20260507032119 | -1 | 286 | 0.0 | 0.0 | 0.00 | 0.08 | 0.08 | 96 | 1020.9 |
| 20260507031616 | -1 | 275 | 0.0 | 1.6 | 0.00 | 0.08 | 0.08 | 96 | 1020.6 |
| 20260507031113 | -1 | 258 | 0.0 | 0.0 | 0.00 | 0.08 | 0.08 | 96 | 1020.5 |
| 20260507030609 | -1 | 173 | 0.0 | 1.6 | 0.00 | 0.08 | 0.08 | 96 | 1020.7 |
| 20260507030107 | -1 | 298 | 0.0 | 0.0 | 0.00 | 0.08 | 0.08 | 96 | 1020.6 |
| 20260507025604 | -1 | 216 | 0.0 | 1.6 | 0.00 | 0.08 | 0.08 | 96 | 1020.4 |
| 20260507025101 | -1 | 201 | 0.0 | 1.6 | 0.00 | 0.08 | 0.08 | 95 | 1020.5 |
| 20260507024559 | -1 | 205 | 1.6 | 1.6 | 0.00 | 0.08 | 0.08 | 95 | 1020.5 |
| 20260507024056 | -1 | 318 | 0.0 | 0.0 | 0.00 | 0.08 | 0.08 | 95 | 1020.2 |
| 20260507023551 | -1 | 117 | 0.0 | 1.6 | 0.00 | 0.08 | 0.08 | 95 | 1020.5 |
| 20260507023049 | -1 | 217 | 0.0 | 0.0 | 0.00 | 0.08 | 0.08 | 95 | 1020.2 |
| 20260507022546 | -1 | 214 | 1.6 | 3.2 | 0.00 | 0.08 | 0.08 | 94 | 1020.2 |
| 20260507022041 | -1 | 220 | 0.0 | 0.0 | 0.00 | 0.08 | 0.08 | 94 | 1020.2 |
| 20260507021537 | -1 | 200 | 3.2 | 3.2 | 0.00 | 0.08 | 0.08 | 95 | 1020.5 |
| 20260507021034 | 0 | 238 | 1.6 | 3.2 | 0.00 | 0.08 | 0.08 | 94 | 1020.1 |
| 20260507020532 | 0 | 166 | 1.6 | 3.2 | 0.00 | 0.08 | 0.08 | 94 | 1020.2 |
| 20260507020028 | 0 | 131 | 1.6 | 1.6 | 0.00 | 0.08 | 0.08 | 94 | 1020.1 |
| 20260507015526 | -1 | 150 | 0.0 | 1.6 | 0.00 | 0.08 | 0.08 | 93 | 1020.2 |
| 20260507015024 | -1 | 199 | 1.6 | 1.6 | 0.00 | 0.08 | 0.08 | 93 | 1020.0 |
| 20260507014520 | -1 | 217 | 0.0 | 0.0 | 0.00 | 0.08 | 0.08 | 92 | 1020.2 |
| 20260507014016 | -1 | 201 | 1.6 | 1.6 | 0.00 | 0.08 | 0.08 | 91 | 1020.2 |
| 20260507013513 | -1 | 256 | 0.0 | 1.6 | 0.00 | 0.08 | 0.08 | 91 | 1020.5 |
| 20260507013010 | 0 | 330 | 0.0 | 0.0 | 0.00 | 0.08 | 0.08 | 91 | 1020.4 |
| 20260507012507 | 0 | 261 | 1.6 | 1.6 | 0.00 | 0.08 | 0.08 | 91 | 1020.0 |
| 20260507012003 | 0 | 317 | 0.0 | 1.6 | 0.00 | 0.08 | 0.08 | 91 | 1020.0 |
| 20260507011501 | 0 | 175 | 1.6 | 1.6 | 0.00 | 0.08 | 0.08 | 90 | 1020.1 |
| 20260507010956 | 0 | 209 | 0.0 | 0.0 | 0.00 | 0.08 | 0.08 | 90 | 1020.2 |
| 20260507010451 | 0 | 203 | 1.6 | 3.2 | 0.00 | 0.08 | 0.08 | 89 | 1020.1 |
| 20260507005948 | 0 | 177 | 0.0 | 1.6 | 0.00 | 0.08 | 0.08 | 88 | 1020.1 |
| 20260507005445 | 0 | 182 | 0.0 | 0.0 | 0.00 | 0.08 | 0.08 | 87 | 1020.0 |
| 20260507004941 | 0 | 172 | 1.6 | 1.6 | 0.00 | 0.08 | 0.08 | 87 | 1019.7 |
| 20260507004438 | 0 | 175 | 0.0 | 1.6 | 0.00 | 0.08 | 0.08 | 87 | 1020.1 |
| 20260507003936 | 0 | 207 | 0.0 | 0.0 | 0.00 | 0.08 | 0.08 | 86 | 1020.2 |
| 20260507003431 | 0 | 251 | 0.0 | 1.6 | 0.00 | 0.08 | 0.08 | 87 | 1020.0 |
| 20260507002926 | 0 | 97 | 1.6 | 1.6 | 0.00 | 0.08 | 0.08 | 87 | 1020.4 |
| 20260507002423 | 0 | 143 | 3.2 | 3.2 | 0.00 | 0.08 | 0.08 | 85 | 1020.1 |
| 20260507001920 | 1 | 249 | 0.0 | 0.0 | 0.00 | 0.08 | 0.08 | 85 | 1020.0 |
| 20260507001416 | 0 | 160 | 3.2 | 3.2 | 0.00 | 0.08 | 0.08 | 86 | 1019.9 |
| 20260507000914 | 0 | 191 | 3.2 | 4.8 | 0.00 | 0.08 | 0.08 | 85 | 1020.0 |
| 20260507000409 | 1 | 333 | 0.0 | 0.0 | 0.00 | 0.08 | 0.08 | 85 | 1020.0 |
| 20260506235905 | 1 | 165 | 4.8 | 4.8 | 0.00 | 0.08 | 0.08 | 83 | 1020.0 |
| 20260506235403 | 1 | 272 | 0.0 | 1.6 | 0.00 | 0.08 | 0.08 | 82 | 1019.7 |
| 20260506234858 | 1 | 135 | 1.6 | 1.6 | 0.00 | 0.08 | 0.08 | 82 | 1019.6 |
| 20260506234356 | 1 | 209 | 3.2 | 3.2 | 0.00 | 0.08 | 0.08 | 80 | 1020.0 |
| 20260506233854 | 0 | 176 | 0.0 | 1.6 | 0.00 | 0.08 | 0.08 | 85 | 1019.7 |
| 20260506233349 | 0 | 349 | 3.2 | 3.2 | 0.00 | 0.08 | 0.08 | 82 | 1019.9 |
| 20260506232847 | 0 | 308 | 1.6 | 1.6 | 0.00 | 0.08 | 0.08 | 84 | 1020.0 |
| 20260506232342 | 1 | 260 | 1.6 | 1.6 | 0.00 | 0.08 | 0.08 | 83 | 1020.1 |
| 20260506231839 | 0 | 219 | 0.0 | 0.0 | 0.00 | 0.08 | 0.08 | 83 | 1019.7 |
| 20260506231337 | 1 | 273 | 0.0 | 0.0 | 0.00 | 0.08 | 0.08 | 84 | 1019.7 |
| 20260506230834 | 1 | 330 | 0.0 | 0.0 | 0.00 | 0.08 | 0.08 | 82 | 1020.1 |
| 20260506230330 | 1 | 303 | 3.2 | 3.2 | 0.00 | 0.08 | 0.08 | 78 | 1020.0 |
| 20260506225827 | 1 | 287 | 0.0 | 0.0 | 0.00 | 0.08 | 0.08 | 82 | 1020.0 |
| 20260506225324 | 1 | 223 | 1.6 | 3.2 | 0.00 | 0.08 | 0.08 | 81 | 1019.7 |
| 20260506224821 | 1 | 305 | 0.0 | 1.6 | 0.00 | 0.08 | 0.08 | 83 | 1019.7 |
| 20260506224318 | 0 | 265 | 0.0 | 0.0 | 0.00 | 0.08 | 0.08 | 86 | 1020.0 |
| 20260506223814 | 0 | 298 | 3.2 | 3.2 | 0.00 | 0.08 | 0.08 | 84 | 1020.0 |
| 20260506223309 | 1 | 3 | 4.8 | 4.8 | 0.13 | 0.08 | 0.08 | 87 | 1019.7 |
| 20260506222807 | 1 | 271 | 3.2 | 3.2 | 0.30 | 0.08 | 0.08 | 86 | 1019.9 |
| 20260506222305 | 0 | 1 | 3.2 | 3.2 | 0.18 | 0.05 | 0.05 | 83 | 1019.9 |
| 20260506221801 | 0 | 314 | 1.6 | 3.2 | 0.00 | 0.03 | 0.03 | 86 | 1020.2 |
| 20260506221258 | 0 | 258 | 0.0 | 0.0 | 0.00 | 0.03 | 0.03 | 86 | 1020.0 |
| 20260506220755 | 0 | 322 | 1.6 | 1.6 | 0.00 | 0.03 | 0.03 | 87 | 1019.9 |
| 20260506220250 | 0 | 358 | 1.6 | 3.2 | 0.00 | 0.03 | 0.03 | 86 | 1020.1 |
| 20260506215747 | 0 | 297 | 3.2 | 3.2 | 0.00 | 0.03 | 0.03 | 87 | 1020.0 |
| 20260506215243 | 0 | 309 | 3.2 | 3.2 | 0.00 | 0.03 | 0.03 | 86 | 1019.7 |
| 20260506214739 | 0 | 328 | 0.0 | 1.6 | 0.00 | 0.03 | 0.03 | 87 | 1020.0 |
| 20260506214236 | 0 | 288 | 3.2 | 4.8 | 0.00 | 0.03 | 0.03 | 87 | 1020.0 |
| 20260506213735 | 0 | 323 | 1.6 | 1.6 | 0.00 | 0.03 | 0.03 | 86 | 1020.0 |
| 20260506213232 | 0 | 343 | 0.0 | 1.6 | 0.00 | 0.03 | 0.03 | 85 | 1020.0 |
| 20260506212729 | 0 | 324 | 4.8 | 11.3 | 0.00 | 0.03 | 0.03 | 83 | 1020.0 |
| 20260506212224 | 0 | 328 | 0.0 | 1.6 | 0.00 | 0.03 | 0.03 | 89 | 1020.2 |
| 20260506211720 | 0 | 340 | 4.8 | 4.8 | 0.00 | 0.03 | 0.03 | 88 | 1020.2 |
| 20260506211216 | 0 | 9 | 1.6 | 3.2 | 0.00 | 0.03 | 0.03 | 86 | 1020.2 |
| 20260506210713 | 0 | 348 | 6.4 | 8.0 | 0.00 | 0.03 | 0.03 | 86 | 1020.0 |
| 20260506210210 | 0 | 1 | 4.8 | 4.8 | 0.00 | 0.03 | 0.03 | 89 | 1020.1 |
| 20260506205707 | 0 | 340 | 4.8 | 4.8 | 0.00 | 0.03 | 0.03 | 89 | 1020.1 |
| 20260506205202 | 0 | 348 | 4.8 | 4.8 | 0.00 | 0.03 | 0.03 | 91 | 1019.7 |
| 20260506204700 | 0 | 358 | 4.8 | 8.0 | 0.00 | 0.03 | 0.03 | 90 | 1020.1 |
| 20260506204156 | 0 | 4 | 1.6 | 1.6 | 0.00 | 0.03 | 0.03 | 91 | 1020.1 |
| 20260506203655 | 0 | 6 | 4.8 | 4.8 | 0.00 | 0.03 | 0.03 | 90 | 1020.1 |
| 20260506203152 | 0 | 345 | 3.2 | 4.8 | 0.13 | 0.03 | 0.03 | 90 | 1020.5 |
| 20260506202650 | 0 | 62 | 4.8 | 4.8 | 0.13 | 0.03 | 0.03 | 89 | 1020.2 |
| 20260506202145 | 0 | 341 | 4.8 | 4.8 | 0.00 | 0.00 | 0.00 | 90 | 1020.2 |
| 20260506201642 | 0 | 35 | 3.2 | 3.2 | 0.00 | 0.00 | 0.00 | 90 | 1020.2 |
| 20260506201139 | 0 | 340 | 1.6 | 3.2 | 0.00 | 0.00 | 0.00 | 91 | 1020.2 |
| 20260506200635 | 0 | 336 | 1.6 | 3.2 | 0.00 | 0.00 | 0.00 | 90 | 1020.0 |
| 20260506200133 | 0 | 349 | 1.6 | 3.2 | 0.00 | 0.00 | 0.00 | 90 | 1020.1 |
| 20260506195629 | 0 | 42 | 3.2 | 4.8 | 0.00 | 0.00 | 0.00 | 92 | 1020.1 |
| 20260506195125 | -1 | 348 | 3.2 | 4.8 | 0.00 | 0.00 | 0.00 | 92 | 1020.4 |
| 20260506194623 | 0 | 3 | 6.4 | 8.0 | 0.00 | 0.00 | 0.00 | 91 | 1020.0 |
| 20260506194119 | 0 | 341 | 4.8 | 4.8 | 0.00 | 0.00 | 0.00 | 91 | 1020.0 |
| 20260506193617 | 0 | 4 | 8.0 | 9.7 | 0.00 | 0.00 | 0.00 | 91 | 1019.9 |
| 20260506193114 | 0 | 92 | 1.6 | 3.2 | 0.00 | 0.00 | 0.00 | 91 | 1020.0 |
| 20260506192611 | 0 | 338 | 0.0 | 0.0 | 0.00 | 0.00 | 0.00 | 90 | 1020.1 |
| 20260506192106 | 0 | 347 | 4.8 | 8.0 | 0.00 | 0.00 | 0.00 | 91 | 1020.0 |
| 20260506191603 | 0 | 343 | 4.8 | 4.8 | 0.00 | 0.00 | 0.00 | 90 | 1020.1 |
| 20260506191059 | 0 | 337 | 0.0 | 0.0 | 0.00 | 0.00 | 0.00 | 90 | 1019.7 |
| 20260506190557 | 0 | 334 | 0.0 | 0.0 | 0.00 | 0.00 | 0.00 | 90 | 1019.9 |
| 20260506190054 | 0 | 330 | 0.0 | 0.0 | 0.00 | 0.00 | 0.00 | 90 | 1019.7 |
| 20260506185551 | 0 | 326 | 0.0 | 0.0 | 0.00 | 0.00 | 0.00 | 91 | 1020.0 |
| 20260506185047 | 0 | 327 | 0.0 | 0.0 | 0.00 | 0.00 | 0.00 | 93 | 1019.9 |
| 20260506184545 | 0 | 326 | 0.0 | 0.0 | 0.00 | 0.00 | 0.00 | 93 | 1019.7 |
| 20260506184042 | -1 | 326 | 0.0 | 0.0 | 0.00 | 0.00 | 0.00 | 92 | 1020.0 |
| 20260506183538 | -1 | 326 | 0.0 | 0.0 | 0.00 | 0.00 | 0.00 | 92 | 1020.1 |